When you browse on this site, cookies collect data to enhance your experience and personalize the content and advertising you see.
Visit our Privacy Policy to learn more. By continuing to use the site, you agree to this use of cookies and data.
  • In Deutschland
  • Länderverzeichnis
  • Für 7 Tage
  • Wassertemperatur
  • Wetterkarte
  • Widgets
  • user-avatar
    Anmelden

    Stündliche Wetter Río Gallegos

    Heute, 9 Dezember, Montag

    Zeit Temperatur Niederschläge Wind Luftdruck Luftfeuchtigkeit
    00:00 +13°C° 0 mm 6 m/S 744 mmHg 66%
    01:00 +13°C° 0 mm 6 m/S 743 mmHg 67%
    02:00 +13°C° 0 mm 6 m/S 743 mmHg 66%
    03:00 +14°C° 0 mm 7 m/S 743 mmHg 65%
    04:00 +13°C° 0 mm 8 m/S 742 mmHg 65%
    05:00 +13°C° 0.1 mm 8 m/S 742 mmHg 66%
    06:00 +12°C° 0.1 mm 8 m/S 742 mmHg 67%
    07:00 +13°C° 0 mm 8 m/S 742 mmHg 68%
    08:00 +14°C° 0 mm 10 m/S 742 mmHg 59%
    09:00 +15°C° 0 mm 13 m/S 742 mmHg 50%
    10:00 +15°C° 0 mm 15 m/S 742 mmHg 41%
    11:00 +14°C° 0 mm 15 m/S 743 mmHg 42%
    12:00 +13°C° 0 mm 15 m/S 743 mmHg 44%
    13:00 +11°C° 0 mm 15 m/S 743 mmHg 45%
    14:00 +13°C° 0 mm 16 m/S 744 mmHg 43%
    15:00 +13°C° 0 mm 16 m/S 745 mmHg 42%
    16:00 +13°C° 0 mm 16 m/S 745 mmHg 40%
    17:00 +10°C° 0 mm 16 m/S 746 mmHg 43%
    18:00 +9°C° 0 mm 15 m/S 747 mmHg 47%
    19:00 +8°C° 0 mm 14 m/S 748 mmHg 50%
    20:00 +7°C° 0 mm 13 m/S 749 mmHg 53%
    21:00 +5°C° 0 mm 12 m/S 749 mmHg 55%
    22:00 +6°C° 0 mm 11 m/S 750 mmHg 58%
    23:00 +4°C° 0 mm 11 m/S 751 mmHg 59%

    Morgen, 10 Dezember, Dienstag

    Zeit Temperatur Niederschläge Wind Luftdruck Luftfeuchtigkeit
    00:00 +4°C° 0 mm 11 m/S 751 mmHg 60%
    01:00 +5°C° 0 mm 10 m/S 751 mmHg 61%
    02:00 +5°C° 0 mm 10 m/S 752 mmHg 61%
    03:00 +3°C° 0 mm 10 m/S 752 mmHg 61%
    04:00 +3°C° 0 mm 10 m/S 752 mmHg 62%
    05:00 +4°C° 0 mm 11 m/S 753 mmHg 58%
    06:00 +6°C° 0 mm 11 m/S 753 mmHg 55%
    07:00 +7°C° 0 mm 12 m/S 753 mmHg 51%
    08:00 +8°C° 0 mm 11 m/S 753 mmHg 49%
    09:00 +11°C° 0 mm 10 m/S 753 mmHg 47%
    10:00 +12°C° 0 mm 10 m/S 753 mmHg 45%
    11:00 +12°C° 0 mm 9 m/S 752 mmHg 43%
    12:00 +13°C° 0 mm 8 m/S 752 mmHg 40%
    13:00 +15°C° 0 mm 8 m/S 752 mmHg 38%
    14:00 +15°C° 0 mm 7 m/S 752 mmHg 38%
    15:00 +15°C° 0 mm 6 m/S 751 mmHg 39%
    16:00 +15°C° 0 mm 5 m/S 751 mmHg 39%
    17:00 +14°C° 0 mm 5 m/S 751 mmHg 43%
    18:00 +13°C° 0 mm 4 m/S 751 mmHg 47%
    19:00 +12°C° 0 mm 4 m/S 751 mmHg 52%
    20:00 +11°C° 0 mm 4 m/S 751 mmHg 55%
    21:00 +11°C° 0 mm 3 m/S 751 mmHg 59%
    22:00 +10°C° 0 mm 3 m/S 751 mmHg 63%
    23:00 +10°C° 0 mm 3 m/S 751 mmHg 63%

    übermorgen, 11 Dezember, Mittwoch

    Zeit Temperatur Niederschläge Wind Luftdruck Luftfeuchtigkeit
    00:00 +9°C° 0 mm 3 m/S 751 mmHg 64%
    01:00 +9°C° 0 mm 3 m/S 750 mmHg 64%
    02:00 +8°C° 0 mm 4 m/S 750 mmHg 65%
    03:00 +7°C° 0 mm 4 m/S 750 mmHg 66%
    04:00 +7°C° 0 mm 5 m/S 750 mmHg 67%
    05:00 +7°C° 0 mm 6 m/S 750 mmHg 63%
    06:00 +8°C° 0 mm 6 m/S 750 mmHg 60%
    07:00 +8°C° 0 mm 7 m/S 750 mmHg 56%
    08:00 +9°C° 0 mm 7 m/S 750 mmHg 52%
    09:00 +10°C° 0 mm 8 m/S 751 mmHg 49%
    10:00 +11°C° 0 mm 8 m/S 751 mmHg 46%
    11:00 +11°C° 0 mm 9 m/S 751 mmHg 44%
    12:00 +12°C° 0 mm 9 m/S 751 mmHg 42%
    13:00 +12°C° 0 mm 10 m/S 751 mmHg 40%
    14:00 +12°C° 0 mm 10 m/S 751 mmHg 41%
    15:00 +12°C° 0 mm 10 m/S 751 mmHg 42%
    16:00 +12°C° 0 mm 10 m/S 752 mmHg 43%
    17:00 +11°C° 0 mm 9 m/S 752 mmHg 47%
    18:00 +11°C° 0 mm 9 m/S 753 mmHg 50%
    19:00 +10°C° 0 mm 8 m/S 753 mmHg 54%
    20:00 +9°C° 0 mm 8 m/S 754 mmHg 56%
    21:00 +8°C° 0 mm 7 m/S 755 mmHg 59%
    22:00 +8°C° 0 mm 7 m/S 756 mmHg 61%
    23:00 +6°C° 0 mm 7 m/S 756 mmHg 63%

    12 Dezember, Donnerstag

    Zeit Temperatur Niederschläge Wind Luftdruck Luftfeuchtigkeit
    00:00 +6°C° 0 mm 7 m/S 756 mmHg 64%
    01:00 +5°C° 0 mm 7 m/S 756 mmHg 66%
    02:00 +5°C° 0 mm 7 m/S 756 mmHg 66%
    03:00 +5°C° 0 mm 7 m/S 756 mmHg 66%
    04:00 +4°C° 0 mm 7 m/S 757 mmHg 66%
    05:00 +5°C° 0 mm 8 m/S 757 mmHg 62%
    06:00 +6°C° 0 mm 8 m/S 757 mmHg 57%
    07:00 +8°C° 0 mm 9 m/S 757 mmHg 53%
    08:00 +8°C° 0 mm 9 m/S 757 mmHg 51%
    09:00 +10°C° 0 mm 9 m/S 756 mmHg 50%
    10:00 +10°C° 0 mm 9 m/S 756 mmHg 48%
    11:00 +11°C° 0 mm 8 m/S 756 mmHg 46%
    12:00 +12°C° 0 mm 8 m/S 755 mmHg 44%
    13:00 +12°C° 0 mm 7 m/S 755 mmHg 41%
    14:00 +14°C° 0 mm 6 m/S 754 mmHg 41%
    15:00 +14°C° 0 mm 5 m/S 754 mmHg 40%
    16:00 +14°C° 0 mm 4 m/S 753 mmHg 39%
    17:00 +14°C° 0 mm 3 m/S 753 mmHg 42%
    18:00 +13°C° 0 mm 3 m/S 753 mmHg 45%
    19:00 +13°C° 0 mm 3 m/S 753 mmHg 48%
    20:00 +12°C° 0 mm 5 m/S 752 mmHg 52%
    21:00 +10°C° 0 mm 6 m/S 752 mmHg 55%
    22:00 +9°C° 0 mm 8 m/S 752 mmHg 59%
    23:00 +8°C° 0 mm 9 m/S 751 mmHg 62%

    13 Dezember, Freitag

    Zeit Temperatur Niederschläge Wind Luftdruck Luftfeuchtigkeit
    00:00 +8°C° 0 mm 9 m/S 750 mmHg 64%
    01:00 +8°C° 0 mm 10 m/S 749 mmHg 67%
    02:00 +8°C° 0 mm 9 m/S 749 mmHg 67%
    03:00 +9°C° 0 mm 7 m/S 749 mmHg 67%
    04:00 +9°C° 0 mm 6 m/S 748 mmHg 67%
    05:00 +10°C° 0 mm 7 m/S 748 mmHg 65%
    06:00 +10°C° 0 mm 7 m/S 748 mmHg 63%
    07:00 +11°C° 0 mm 8 m/S 747 mmHg 60%
    08:00 +11°C° 0 mm 7 m/S 747 mmHg 56%
    09:00 +13°C° 0 mm 5 m/S 747 mmHg 51%
    10:00 +14°C° 0 mm 4 m/S 747 mmHg 47%
    11:00 +14°C° 0 mm 4 m/S 747 mmHg 46%
    12:00 +15°C° 0 mm 4 m/S 746 mmHg 45%
    13:00 +16°C° 0 mm 3 m/S 746 mmHg 44%
    14:00 +14°C° 0.8 mm 4 m/S 746 mmHg 54%
    15:00 +13°C° 0.8 mm 4 m/S 746 mmHg 63%
    16:00 +10°C° 0.8 mm 5 m/S 746 mmHg 72%
    17:00 +11°C° 1.2 mm 4 m/S 746 mmHg 73%
    18:00 +11°C° 1.2 mm 4 m/S 747 mmHg 74%
    19:00 +11°C° 1.2 mm 3 m/S 747 mmHg 74%
    20:00 +9°C° 0 mm 5 m/S 748 mmHg 73%
    21:00 +9°C° 0 mm 6 m/S 748 mmHg 73%
    22:00 +7°C° 0 mm 8 m/S 749 mmHg 72%
    23:00 +7°C° 0 mm 8 m/S 749 mmHg 73%

    14 Dezember, Samstag

    Zeit Temperatur Niederschläge Wind Luftdruck Luftfeuchtigkeit
    00:00 +7°C° 0 mm 8 m/S 749 mmHg 73%
    01:00 +6°C° 0 mm 8 m/S 749 mmHg 74%
    02:00 +6°C° 0 mm 8 m/S 750 mmHg 74%
    03:00 +7°C° 0 mm 8 m/S 750 mmHg 74%
    04:00 +7°C° 0 mm 8 m/S 750 mmHg 74%
    05:00 +7°C° 0 mm 10 m/S 751 mmHg 69%
    06:00 +8°C° 0 mm 11 m/S 751 mmHg 64%
    07:00 +8°C° 0 mm 12 m/S 751 mmHg 59%
    08:00 +9°C° 0 mm 12 m/S 751 mmHg 58%
    09:00 +11°C° 0 mm 11 m/S 751 mmHg 57%
    10:00 +11°C° 0 mm 10 m/S 752 mmHg 56%
    11:00 +11°C° 0.1 mm 9 m/S 752 mmHg 60%
    12:00 +11°C° 0.1 mm 7 m/S 752 mmHg 65%
    13:00 +11°C° 0.1 mm 6 m/S 751 mmHg 69%
    14:00 +12°C° 0.2 mm 5 m/S 752 mmHg 70%
    15:00 +12°C° 0.2 mm 5 m/S 752 mmHg 70%
    16:00 +12°C° 0.2 mm 4 m/S 752 mmHg 71%
    17:00 +12°C° 0.1 mm 4 m/S 752 mmHg 70%
    18:00 +13°C° 0.1 mm 4 m/S 752 mmHg 70%
    19:00 +13°C° 0.1 mm 4 m/S 753 mmHg 70%
    20:00 +12°C° 0 mm 5 m/S 753 mmHg 70%
    21:00 +12°C° 0 mm 5 m/S 754 mmHg 70%
    22:00 +10°C° 0 mm 6 m/S 754 mmHg 71%
    23:00 +10°C° 0 mm 6 m/S 754 mmHg 71%
    Mehr zeigen